Skip Page Navigation
NASA JPL Caltech
NASA Logo - Jet Propulsion Laboratory + View the NASA Portal
+ Center for Near-Earth Object Studies
JPL Home Earth Solar System Stars & Galaxies Technology
JPL Solar System Dynamics
BODIES ORBITS EPHEMERIDES TOOLS PHYSICAL DATA DISCOVERY FAQ SITE MAP
IMPORTANT: The SSD Announcement email list is now available. Major changes are coming in the near future, including possible hostname and/or URL changes. To be notified of such changes, subscribe to this email list.

Please visit this page for more details.


JPL Small-Body Database Browser
Search: [ help ]  
376288 (2011 FW82)
Classification: Main-belt Asteroid          SPK-ID: 2376288
Ephemeris | Orbit Diagram | Orbital Elements | Mission Design | Physical Parameters | Discovery Circumstances | Close-Approach Data ]

[ show orbit diagram ]
Orbital Elements at Epoch 2459000.5 (2020-May-31.0) TDB
Reference: JPL 16 (heliocentric ecliptic J2000)
 Element Value Uncertainty (1-sigma)   Units 
e .0501917204361785 4.4745e-08  
a 2.903604214800318 3.4994e-08 au
q 2.757867323793751 1.2786e-07 au
i 3.327086652231247 6.5325e-06 deg
node 46.63370978148522 9.5854e-05 deg
peri 232.0821884867449 0.00011837 deg
M 224.2113869114539 7.0039e-05 deg
tp 2459682.156226202424
(2022-Apr-12.65622620)
0.0003525 TDB
period 1807.193076438984
4.95
3.2671e-05
8.945e-08
d
yr
n .1992039504209303 3.6012e-09 deg/d
Q 3.049341105806886 3.6751e-08 au
  Orbit Determination Parameters
   # obs. used (total)      191  
   data-arc span      7807 days (21.37 yr)  
   first obs. used      1998-09-18  
   last obs. used      2020-02-02  
   planetary ephem.      DE431  
   SB-pert. ephem.      SB431-N16  
   condition code      0  
   norm. resid. RMS      .57349  
   source      ORB  
   producer      Otto Matic  
   solution date      2020-Feb-26 02:44:29  

Additional Information
 Earth MOID = 1.7431 au 
 Jupiter MOID = 2.00555 au 
 T_jup = 3.282 
[ show covariance matrix ]

Ephemeris | Orbit Diagram | Orbital Elements | Mission Design | Physical Parameters | Discovery Circumstances | Close-Approach Data ]

Physical Parameter Table
Parameter Symbol Value Units Sigma Reference Notes
absolute magnitude H 16.4   n/a MPO418905  

376288 (2011 FW82)          Discovered 2003-Oct-01 by Spacewatch at Kitt Peak
Reference: Last Updated: 2013-10-21

[ show close-approach data ]
Alternate Designations
 2011 FW82 = 2003 TQ32 = 2006 DT91 
Ephemeris | Orbit Diagram | Orbital Elements | Mission Design | Physical Parameters | Discovery Circumstances | Close-Approach Data ]
ABOUT SSD CREDITS/AWARDS PRIVACY/COPYRIGHT GLOSSARY LINKS
FirstGov 2020-Mar-29 01:19 UT
(server date/time)  
NASA Home Page
Site Manager:   Ryan S. Park
Webmaster  Alan B. Chamberlin